Погода в Оратове

Украина / Винницкая область     49°11′17″N   29°31′54″E
темп.,
°C
ветер,
м/с
пор.,
м/с
влажн.,
%
обл.,
%
осадки,
мм/ч
давл.,
гПа
погр.,
м
7 мая, пт
пт700:00+7зюз115777 0.0 101410
03:00+6юз22645 0.0 101416
06:00+6ююз347691 0.0 101460
09:00+12ю5861100 0.0 1013470
12:00+15ю81262100 0.0 10111369
15:00+15ююз71176100 1.7 10091061
18:00+13юз4986100 3.1 1007306
21:00+10юв2297100 15.7 100764
8 мая, сб
сб800:00+10ю4798100 0.5 1007294
03:00+10з5897100 1.4 1006390
06:00+10з61093100 0.7 1008539
09:00+7сз7128832 0.9 1012850
12:00+10зсз9125513 0.0 10131894
15:00+10зсз10145796 0.1 10142117
18:00+9сз1013705 0.1 10161378
21:00+4сз5128636 0.1 1020626
9 мая, вс
вс900:00+3зсз49924 0.0 1021342
03:00+1зсз410905 0.0 1023266
06:00+1зсз49890 0.0 1024213
09:00+8сз566865 0.0 1025593
12:00+11сз46515 0.0 10261629
15:00+13зсз4544100 0.0 10252302
18:00+13сз344962 0.0 10251664
21:00+8сз11626 0.0 102710
10 мая, пн
пн1000:00+6всв11702 0.0 102810
03:00+5ююв22730 0.0 102810
06:00+5юв22770 0.0 102816
09:00+11юв45630 0.0 1029415
12:00+14юв33510 0.0 10281434
15:00+16в22460 0.0 10261573
18:00+15всв33520 0.0 10251370
21:00+10в35740 0.0 102670
11 мая, вт
вт1100:00+7всв22770 0.0 102719
03:00+6св33790 0.0 102626
06:00+6ссв36835 0.0 102597
09:00+12ссв58640 0.0 1024402
12:00+17св57602 0.0 1022782
15:00+20св56581 0.0 10201062
18:00+19св58700 0.0 10191201
21:00+14всв5129164 0.6 1020426